[[{"header":{"parameterUnit":"m.s-1","parameterCategory":1,"la1":30.2991,"la2":30.254,"lo1":-89.0895,"lo2":-89.0444,"dy":0.0017,"dx":0.0017,"nx":28,"ny":28,"refTime":"2024-07-04T09:00:00:Z","depth":0,"parameterNumber":2,"parameterNumberName":"U-component_of_WINDS"},"data":[0,0,0,0,0,0,0,0,0,0,0,0,0,0,0,0,0,0,0,0,0,0,0,0,0,0,0,0,0,0,0,0,0,0,0,0,0,0,0,0,0,0,0,0,0,0,0,0,0,0,0,0,0,0,0,0,0,0,3.6233,3.6234,0,3.6402,3.6404,3.6406,3.6385,3.6383,3.638,3.6377,3.6553,3.656,3.6567,0,0,0,0,0,0,0,0,0,0,0,0,0,3.5892,3.5899,3.6232,3.6235,3.6237,3.6402,3.6404,3.6406,3.6386,3.6383,3.6379,3.6376,3.6551,3.6559,3.6568,0,0,0,0,0,0,0,0,0,0,0,0,0,3.6049,3.5901,3.6232,3.6246,3.6249,3.6401,3.6404,3.6407,3.6387,3.6383,3.6378,3.6375,3.6548,3.6558,3.6569,3.6718,0,0,3.6602,3.6607,0,0,0,0,0,0,0,0,3.604,3.6061,3.6242,3.6246,3.6249,3.6368,3.6348,3.6511,3.6388,3.6335,3.6377,3.6373,3.6495,3.651,3.6551,3.6726,3.6734,3.6603,3.661,3.6614,3.6617,0,0,0,0,0,0,0,3.6029,3.6054,3.63,3.6245,3.6249,3.6245,3.6262,3.6379,3.6436,3.6339,3.6338,3.6358,3.6496,3.654,3.6555,3.6736,3.6603,3.6612,3.6619,3.6623,3.7041,3.7046,0,0,0,0,0,0,3.6014,3.6045,3.6294,3.6305,3.6132,3.6254,3.6274,3.6334,3.6434,3.6446,3.6361,3.6356,3.6524,3.6542,3.6561,3.6741,3.6614,3.6624,3.6631,3.7037,3.7042,3.7047,0,0,0,0,0,0,3.6007,3.6037,3.6287,3.6175,3.6206,3.6264,3.6332,3.634,3.6384,3.6451,3.6462,3.6396,3.6521,3.6546,3.6679,3.6747,3.6629,3.6639,3.7031,3.7039,3.7045,3.7103,0,0,0,0,0,0,3.5998,3.6034,3.6092,3.6176,3.6212,3.6402,3.6337,3.6346,3.6402,3.6398,3.6487,3.6498,3.652,3.6663,3.6689,3.676,3.6648,3.7026,3.7035,3.7043,3.7096,3.7111,3.7125,0,0,0,0,0,3.5985,3.6102,3.6095,3.6125,3.6285,3.6406,3.6427,3.645,3.6408,3.6466,3.6509,3.6495,3.6735,3.6676,3.6706,3.6781,3.7021,3.7032,3.7042,3.7089,3.7108,3.7124,0,0,0,0,0,0,3.6025,3.6113,3.6106,3.6253,3.6322,3.6403,3.6476,3.647,3.6553,3.6545,3.657,3.6591,3.6725,3.6766,3.6699,3.693,3.6873,3.6889,3.6898,3.6917,3.6931,3.6918,3.6657,0,0,0,0,0,3.6051,3.6142,3.6214,3.6337,3.6372,3.6418,3.6472,3.6483,3.6556,3.6586,3.6638,3.671,3.6802,3.6862,3.695,3.7101,3.712,3.7167,3.7182,3.7194,3.7208,3.729,3.7312,3.7081,3.7081,3.7081,0,0,3.6105,3.6164,3.6221,3.6346,3.6401,3.6495,3.6443,3.6545,3.6614,3.6601,3.673,3.6771,3.6853,3.6995,3.7061,3.7034,3.7276,3.7207,3.7216,3.7224,3.7303,3.7325,3.7344,3.7088,3.7087,3.7086,0,0,3.6252,3.6306,3.6414,3.6469,3.6553,3.6582,3.6608,3.669,3.6716,3.6845,3.6837,3.6921,3.7078,3.7136,3.7186,3.7354,3.7343,3.7382,3.7458,3.7538,3.7556,3.7572,3.7631,3.7652,3.7396,3.7396,3.7396,0,3.6309,3.6449,3.647,3.6573,3.6628,3.6619,3.6728,3.6782,3.689,3.6928,3.6896,3.7093,3.7147,3.7303,3.7343,3.7385,3.7415,3.7372,3.7552,3.7568,3.7584,3.764,3.7662,3.74,3.7399,3.7399,3.7399,0,3.6515,3.6613,3.669,3.6793,3.6857,3.6962,3.6999,3.7062,3.7067,3.71,3.7232,3.7296,3.7397,3.7435,3.7442,3.7591,3.7572,3.7546,3.7489,3.7609,3.7663,3.7685,3.7406,3.7404,3.7403,3.7402,0,0,3.6693,3.6805,3.6833,3.6879,3.697,3.7045,3.715,3.7247,3.73,3.7375,3.7463,3.7595,3.7571,3.7628,3.7642,3.7712,3.7839,3.7677,3.7679,3.7704,3.8007,3.8025,3.805,3.7833,3.7837,3.784,3.8,0,3.6848,3.7032,3.7053,3.7218,3.7307,3.73,3.7391,3.7456,3.749,3.7571,3.7608,3.7702,3.7663,3.7697,3.7767,3.7809,3.79,3.7798,3.7915,3.7919,3.7894,3.8078,3.8099,3.8246,3.8021,3.8024,3.8027,0,3.7054,3.7133,3.7306,3.7382,3.7421,3.7502,3.7592,3.767,3.7744,3.7763,3.7826,3.783,3.7938,3.7876,3.8025,3.7955,3.8004,3.8032,3.8038,3.805,3.798,3.8095,3.8294,3.8316,3.806,3.8058,3.8055,0,3.7165,3.7315,3.7437,3.7477,3.757,3.7627,3.7669,3.7738,3.7795,3.7874,3.7911,3.8002,3.8051,3.8122,3.815,3.8103,3.8297,3.8238,3.8316,3.8315,3.8357,3.8354,3.8567,3.839,3.8389,3.8389,3.8389,0,3.7336,3.7442,3.7488,3.7564,3.7682,3.7705,3.7822,3.7861,3.7922,3.8005,3.8004,3.8082,3.8115,3.8198,3.8221,3.834,3.8363,3.8381,3.8386,3.8381,3.8379,3.8414,3.8404,3.8395,3.8394,3.8392,3.8391,0,3.748,3.7516,3.7648,3.7725,3.7746,3.783,3.7896,3.7969,3.8,3.8105,3.8131,3.8182,3.8279,3.8314,3.8433,3.8448,3.8586,3.8583,3.8561,3.8562,3.8638,3.863,3.888,3.8914,3.8715,3.8717,3.8718,0,3.7587,3.7668,3.7753,3.7808,3.7851,3.794,3.7997,3.8023,3.8082,3.8172,3.8234,3.833,3.8409,3.8565,3.8612,3.8703,3.8701,3.8783,3.8715,3.8707,3.8702,3.8696,3.8704,3.8795,3.8797,3.8799,3.88,0,3.7773,3.7786,3.7868,3.7956,3.8024,3.8096,3.8164,3.8209,3.8245,3.8313,3.8412,3.8472,3.8593,3.8689,3.8781,3.8824,3.8819,3.8821,3.8844,3.884,3.8823,3.8832,3.8595,3.8815,3.8814,3.8813,3.8812,3.8811,3.7901,3.7973,3.8043,3.8134,3.8188,3.8252,3.8324,3.8364,3.8447,3.8546,3.8556,3.8663,3.8733,3.8857,3.8904,3.8987,3.8965,3.8998,3.9006,3.9014,3.9019,3.881,3.9004,3.9004,3.9003,3.9003,3.9003,0,3.8086,3.813,3.8214,3.831,3.8382,3.8369,3.8444,3.8505,3.8598,3.8664,3.8741,3.8854,3.8946,3.9001,3.9093,3.915,3.9149,3.9173,3.9169,3.9179,3.9034,3.9005,3.9172,3.9172,3.9171,3.9171,3.9171,3.9171,3.8191,3.831,3.8331,3.8477,3.8521,3.8624,3.8668,3.8727,3.8779,3.8905,3.8982,3.9016,3.9077,3.9174,3.9258,3.9271,3.9305,3.9331,3.9342,3.9206,3.9189,3.9173,3.9145,3.9338,3.9339,3.948,3.9481,3.9482]},{"header":{"parameterUnit":"m.s-1","parameterCategory":1,"la1":30.2991,"la2":30.254,"lo1":-89.0895,"lo2":-89.0444,"dy":0.0017,"dx":0.0017,"nx":28,"ny":28,"refTime":"2024-07-04T09:00:00:Z","depth":0,"parameterNumber":3,"parameterNumberName":"V-component_of_WINDS"},"data":[0,0,0,0,0,0,0,0,0,0,0,0,0,0,0,0,0,0,0,0,0,0,0,0,0,0,0,0,0,0,0,0,0,0,0,0,0,0,0,0,0,0,0,0,0,0,0,0,0,0,0,0,0,0,0,0,0,0,-0.6973,-0.6973,0,-0.7012,-0.7013,-0.7013,-0.7018,-0.7018,-0.7017,-0.7017,-0.7058,-0.7059,-0.7061,0,0,0,0,0,0,0,0,0,0,0,0,0,-0.6903,-0.6904,-0.6973,-0.6973,-0.6974,-0.7012,-0.7013,-0.7013,-0.7018,-0.7018,-0.7017,-0.7017,-0.7057,-0.7059,-0.7061,0,0,0,0,0,0,0,0,0,0,0,0,0,-0.6937,-0.6905,-0.6973,-0.6981,-0.6982,-0.7012,-0.7013,-0.7014,-0.7018,-0.7018,-0.7017,-0.7017,-0.7057,-0.7059,-0.7061,-0.7086,0,0,-0.7068,-0.7068,0,0,0,0,0,0,0,0,-0.6935,-0.694,-0.6979,-0.698,-0.6982,-0.701,-0.7003,-0.7038,-0.7018,-0.7005,-0.7017,-0.7016,-0.7042,-0.7046,-0.7054,-0.7088,-0.709,-0.7068,-0.7069,-0.707,-0.7071,0,0,0,0,0,0,0,-0.6933,-0.6938,-0.6989,-0.698,-0.6981,-0.6983,-0.6987,-0.701,-0.7026,-0.7006,-0.7006,-0.7011,-0.7043,-0.7052,-0.7055,-0.709,-0.7068,-0.707,-0.7071,-0.7072,-0.7148,-0.7148,0,0,0,0,0,0,-0.6929,-0.6936,-0.6987,-0.699,-0.6957,-0.6985,-0.6989,-0.7001,-0.7026,-0.7029,-0.7011,-0.7011,-0.7049,-0.7053,-0.7057,-0.7088,-0.707,-0.7072,-0.7073,-0.7147,-0.7148,-0.7148,0,0,0,0,0,0,-0.6927,-0.6933,-0.6986,-0.6963,-0.697,-0.6987,-0.7,-0.7002,-0.7012,-0.703,-0.7033,-0.7018,-0.7048,-0.7054,-0.7079,-0.709,-0.7073,-0.7075,-0.7146,-0.7147,-0.7148,-0.7151,0,0,0,0,0,0,-0.6925,-0.6933,-0.6942,-0.6963,-0.6971,-0.7007,-0.7001,-0.7004,-0.7015,-0.7015,-0.7037,-0.704,-0.7048,-0.7076,-0.7081,-0.7092,-0.7077,-0.7145,-0.7146,-0.7148,-0.715,-0.7152,-0.7153,0,0,0,0,0,-0.6923,-0.6941,-0.6942,-0.6949,-0.6983,-0.7007,-0.7012,-0.7021,-0.7016,-0.7026,-0.7038,-0.7039,-0.7088,-0.7078,-0.7084,-0.7096,-0.7144,-0.7146,-0.7148,-0.7149,-0.7151,-0.7153,0,0,0,0,0,0,-0.692,-0.6944,-0.6946,-0.6971,-0.6987,-0.7008,-0.702,-0.7023,-0.7041,-0.704,-0.7051,-0.7056,-0.7081,-0.7091,-0.708,-0.7123,-0.7116,-0.7119,-0.7115,-0.7117,-0.7119,-0.7116,-0.7078,0,0,0,0,0,-0.6923,-0.694,-0.696,-0.6981,-0.6989,-0.7003,-0.7014,-0.702,-0.7037,-0.7044,-0.7058,-0.7075,-0.7094,-0.7106,-0.7125,-0.7152,-0.7157,-0.7163,-0.7165,-0.7166,-0.7169,-0.7185,-0.7188,-0.7154,-0.7154,-0.7154,0,0,-0.6928,-0.6943,-0.6953,-0.6981,-0.6994,-0.7012,-0.7009,-0.7028,-0.7042,-0.7047,-0.7072,-0.7083,-0.7102,-0.7129,-0.7141,-0.7138,-0.718,-0.7169,-0.7169,-0.7171,-0.7187,-0.719,-0.7193,-0.7155,-0.7155,-0.7154,0,0,-0.6946,-0.6959,-0.6978,-0.6992,-0.7012,-0.7022,-0.7027,-0.7047,-0.7055,-0.708,-0.7084,-0.7102,-0.7134,-0.7148,-0.7159,-0.7185,-0.7187,-0.7191,-0.7201,-0.7216,-0.7219,-0.7221,-0.7231,-0.7234,-0.7194,-0.7194,-0.7194,0,-0.695,-0.6978,-0.6988,-0.7007,-0.702,-0.7025,-0.7045,-0.7058,-0.7083,-0.7092,-0.7088,-0.713,-0.7144,-0.7174,-0.718,-0.7189,-0.7195,-0.7188,-0.7218,-0.722,-0.7223,-0.7232,-0.7236,-0.7194,-0.7194,-0.7194,-0.7194,0,-0.6981,-0.7001,-0.7014,-0.7038,-0.7052,-0.7072,-0.7085,-0.7099,-0.7104,-0.7114,-0.714,-0.7157,-0.718,-0.7188,-0.7193,-0.7219,-0.7217,-0.7215,-0.7209,-0.7226,-0.7235,-0.7239,-0.7194,-0.7194,-0.7194,-0.7194,0,0,-0.6998,-0.7029,-0.7034,-0.7045,-0.7069,-0.7084,-0.7105,-0.7127,-0.7138,-0.7156,-0.7174,-0.7202,-0.7201,-0.7214,-0.7221,-0.7235,-0.7255,-0.7232,-0.7233,-0.7236,-0.7286,-0.7287,-0.7291,-0.7257,-0.7258,-0.7258,-0.7284,0,-0.7019,-0.7055,-0.7066,-0.7097,-0.7115,-0.7122,-0.714,-0.7157,-0.7167,-0.7185,-0.7197,-0.7217,-0.7215,-0.7223,-0.7237,-0.725,-0.7265,-0.7248,-0.7274,-0.7275,-0.7268,-0.7295,-0.7296,-0.7319,-0.7288,-0.7289,-0.7289,0,-0.7049,-0.7067,-0.71,-0.7122,-0.713,-0.7146,-0.7168,-0.7185,-0.7204,-0.7211,-0.7227,-0.7233,-0.7256,-0.7248,-0.728,-0.7268,-0.7279,-0.7288,-0.7289,-0.7291,-0.7283,-0.7298,-0.7327,-0.733,-0.7295,-0.7294,-0.7294,0,-0.7058,-0.7091,-0.7115,-0.7125,-0.7151,-0.7163,-0.7174,-0.7193,-0.7207,-0.7226,-0.7235,-0.7257,-0.7268,-0.7286,-0.7298,-0.7291,-0.7329,-0.7322,-0.7335,-0.7335,-0.7342,-0.7342,-0.7373,-0.735,-0.735,-0.735,-0.735,0,-0.708,-0.71,-0.712,-0.7134,-0.7157,-0.717,-0.7192,-0.7204,-0.7221,-0.7239,-0.7246,-0.7263,-0.7278,-0.7297,-0.7307,-0.7332,-0.7338,-0.7344,-0.7347,-0.7343,-0.7343,-0.7351,-0.7349,-0.7351,-0.7351,-0.7351,-0.735,0,-0.7094,-0.7108,-0.7134,-0.7158,-0.7164,-0.718,-0.72,-0.7215,-0.7227,-0.7249,-0.7256,-0.7274,-0.7297,-0.7311,-0.734,-0.7347,-0.7374,-0.7376,-0.7367,-0.7368,-0.7381,-0.738,-0.7418,-0.7424,-0.7398,-0.7398,-0.7398,0,-0.7107,-0.7122,-0.7148,-0.716,-0.7172,-0.7192,-0.7205,-0.7219,-0.7233,-0.7257,-0.727,-0.7293,-0.7312,-0.7349,-0.7365,-0.7388,-0.739,-0.7402,-0.7393,-0.739,-0.739,-0.7389,-0.7391,-0.7403,-0.7404,-0.7404,-0.7404,0,-0.7129,-0.7135,-0.7155,-0.7177,-0.7193,-0.7211,-0.7229,-0.7239,-0.7256,-0.7272,-0.7295,-0.731,-0.734,-0.7364,-0.7388,-0.7401,-0.7405,-0.7407,-0.7411,-0.7408,-0.7402,-0.7406,-0.7371,-0.7406,-0.7405,-0.7405,-0.7405,-0.7405,-0.7143,-0.7157,-0.7177,-0.7199,-0.7214,-0.7231,-0.7247,-0.7261,-0.7281,-0.7306,-0.7313,-0.7338,-0.7359,-0.7392,-0.7405,-0.7425,-0.7424,-0.743,-0.7431,-0.7433,-0.7433,-0.7399,-0.743,-0.743,-0.743,-0.743,-0.743,0,-0.7165,-0.7179,-0.7199,-0.7224,-0.7242,-0.7245,-0.7266,-0.728,-0.7302,-0.7321,-0.734,-0.7368,-0.7391,-0.7409,-0.7433,-0.7446,-0.7449,-0.7452,-0.7451,-0.7454,-0.7433,-0.7427,-0.7449,-0.7449,-0.7449,-0.7449,-0.7449,-0.7449,-0.7179,-0.7204,-0.7213,-0.7246,-0.726,-0.7284,-0.7296,-0.7312,-0.7327,-0.7358,-0.7377,-0.7389,-0.7408,-0.7434,-0.7456,-0.7461,-0.7469,-0.7472,-0.7477,-0.7457,-0.7455,-0.7453,-0.7447,-0.7474,-0.7474,-0.7496,-0.7497,-0.7497]}]]